UAE338 RPVM-RPLC

Flight info

Callsign UAE338
Flight time 0h 57m
Altitude 36000
Route MULOP4P MULOP W11 MIA W16 OLIVA OLIVA3P
Aircraft B77W/H-SDE1E2E3FGHIJ2J3J4J5M1RWXY/LB1D1

Departure

Time 2026-05-06 13:30
Airport Mactan Cebu International Airport (RPVM)

Arrival

Time 2026-05-06 14:27
Airport Clark International Airport / Clark Air Base (RPLC)
Time Latitude Longitude Altitude Speed Heading
2026-05-06 13:04 10.31279 123.97764 42 ft 0 kts 266°
2026-05-06 13:15 10.31279 123.97763 42 ft 0 kts 266°
2026-05-06 13:15 10.31280 123.97777 42 ft 3 kts 266°
2026-05-06 13:15 10.31282 123.97805 42 ft 3 kts 261°
2026-05-06 13:16 10.31290 123.97830 42 ft 3 kts 243°
2026-05-06 13:16 10.31305 123.97852 42 ft 4 kts 229°
2026-05-06 13:16 10.31321 123.97875 42 ft 3 kts 242°
2026-05-06 13:16 10.31331 123.97896 42 ft 2 kts 230°
2026-05-06 13:17 10.31355 123.97907 42 ft 3 kts 188°
2026-05-06 13:17 10.31373 123.97910 42 ft 3 kts 186°
2026-05-06 13:17 10.31390 123.97915 42 ft 2 kts 220°
2026-05-06 13:17 10.31401 123.97932 42 ft 3 kts 249°
2026-05-06 13:18 10.31410 123.97952 42 ft 1 kts 239°
2026-05-06 13:18 10.31404 123.97944 42 ft 3 kts 233°
2026-05-06 13:18 10.31394 123.97931 42 ft 0 kts 230°
2026-05-06 13:24 10.31390 123.97926 42 ft 0 kts 229°
2026-05-06 13:24 10.31374 123.97910 42 ft 7 kts 218°
2026-05-06 13:24 10.31307 123.97920 42 ft 13 kts 145°
2026-05-06 13:25 10.31245 123.97976 42 ft 9 kts 153°
2026-05-06 13:25 10.31187 123.97964 42 ft 10 kts 217°
2026-05-06 13:25 10.31121 123.97900 42 ft 15 kts 225°
2026-05-06 13:25 10.31035 123.97815 42 ft 18 kts 225°
2026-05-06 13:26 10.30934 123.97712 42 ft 22 kts 225°
2026-05-06 13:26 10.30819 123.97593 42 ft 25 kts 225°
2026-05-06 13:26 10.30688 123.97462 42 ft 28 kts 224°
2026-05-06 13:26 10.30547 123.97322 42 ft 27 kts 224°
2026-05-06 13:27 10.30415 123.97190 42 ft 25 kts 224°
2026-05-06 13:27 10.30290 123.97065 42 ft 24 kts 225°
2026-05-06 13:27 10.30170 123.96947 42 ft 23 kts 224°
2026-05-06 13:27 10.30057 123.96835 42 ft 22 kts 225°
2026-05-06 13:28 10.29955 123.96731 42 ft 14 kts 223°
2026-05-06 13:28 10.29885 123.96711 42 ft 10 kts 158°
2026-05-06 13:28 10.29834 123.96756 42 ft 8 kts 135°
2026-05-06 13:28 10.29801 123.96790 42 ft 5 kts 134°
2026-05-06 13:29 10.29770 123.96822 42 ft 7 kts 134°
2026-05-06 13:29 10.29734 123.96859 42 ft 6 kts 134°
2026-05-06 13:29 10.29735 123.96915 42 ft 9 kts 51°
2026-05-06 13:29 10.29771 123.96952 42 ft 13 kts 44°
2026-05-06 13:30 10.29929 123.97112 42 ft 65 kts 45°
2026-05-06 13:30 10.30691 123.97879 56 ft 159 kts 45°
2026-05-06 13:30 10.31228 123.98423 405 ft 167 kts 45°
2026-05-06 13:30 10.32038 123.99246 1291 ft 163 kts 46°
2026-05-06 13:31 10.32857 124.00085 1850 ft 175 kts 45°
2026-05-06 13:31 10.33735 124.00975 2420 ft 187 kts 46°
2026-05-06 13:31 10.34763 124.01848 2982 ft 201 kts 27°
2026-05-06 13:31 10.36184 124.02235 3557 ft 220 kts
2026-05-06 13:32 10.37727 124.02026 4180 ft 236 kts 346°
2026-05-06 13:32 10.39324 124.01471 4842 ft 249 kts 344°
2026-05-06 13:32 10.41029 124.00880 5449 ft 265 kts 344°
2026-05-06 13:32 10.42791 124.00276 6256 ft 271 kts 344°
2026-05-06 13:33 10.44597 123.99647 7039 ft 278 kts 344°
2026-05-06 13:33 10.47050 123.98789 8143 ft 284 kts 344°
2026-05-06 13:33 10.48294 123.98354 8694 ft 286 kts 344°
2026-05-06 13:33 10.50824 123.97469 9741 ft 292 kts 344°
2026-05-06 13:34 10.52124 123.97013 10272 ft 295 kts 344°
2026-05-06 13:34 10.54110 123.96319 10786 ft 311 kts 344°
2026-05-06 13:34 10.56230 123.95579 11283 ft 329 kts 344°
2026-05-06 13:34 10.58454 123.94801 11837 ft 344 kts 343°
2026-05-06 13:35 10.61551 123.93714 12594 ft 365 kts 343°
2026-05-06 13:35 10.63177 123.93079 12994 ft 376 kts 338°
2026-05-06 13:35 10.65447 123.91702 13725 ft 390 kts 325°
2026-05-06 13:35 10.67474 123.89803 14604 ft 401 kts 314°
2026-05-06 13:36 10.69916 123.86900 15889 ft 408 kts 312°
2026-05-06 13:36 10.71127 123.85445 16508 ft 412 kts 312°
2026-05-06 13:36 10.73000 123.83205 17420 ft 418 kts 312°
2026-05-06 13:36 10.74887 123.80956 18318 ft 423 kts 312°
2026-05-06 13:37 10.77456 123.77903 19452 ft 431 kts 312°
2026-05-06 13:37 10.78770 123.76345 19764 ft 435 kts 312°
2026-05-06 13:37 10.81386 123.73245 19886 ft 436 kts 312°
2026-05-06 13:37 10.82713 123.71674 19889 ft 435 kts 312°
2026-05-06 13:38 10.84700 123.69321 19892 ft 434 kts 312°
2026-05-06 13:38 10.86647 123.67017 19890 ft 434 kts 312°
2026-05-06 13:38 10.88672 123.64622 20190 ft 449 kts 312°
2026-05-06 13:38 10.90688 123.62236 21266 ft 447 kts 312°
2026-05-06 13:39 10.92690 123.59866 22387 ft 443 kts 312°
2026-05-06 13:39 10.94715 123.57469 23220 ft 448 kts 312°
2026-05-06 13:39 10.96733 123.55080 23929 ft 454 kts 311°
2026-05-06 13:39 10.98831 123.52608 24716 ft 459 kts 313°
2026-05-06 13:40 11.01975 123.49708 25758 ft 463 kts 324°
2026-05-06 13:40 11.03732 123.48440 26287 ft 466 kts 326°
2026-05-06 13:40 11.06426 123.46556 27078 ft 470 kts 326°
2026-05-06 13:40 11.09126 123.44675 27848 ft 474 kts 326°
2026-05-06 13:41 11.11841 123.42782 28609 ft 478 kts 326°
2026-05-06 13:41 11.14632 123.40834 29376 ft 482 kts 325°
2026-05-06 13:41 11.17390 123.38908 30214 ft 483 kts 325°
2026-05-06 13:41 11.20165 123.36970 31128 ft 482 kts 325°
2026-05-06 13:42 11.22909 123.35053 31982 ft 481 kts 325°
2026-05-06 13:42 11.25665 123.33125 32784 ft 481 kts 324°
2026-05-06 13:42 11.28424 123.31196 33628 ft 481 kts 324°
2026-05-06 13:42 11.31193 123.29259 34541 ft 479 kts 324°
2026-05-06 13:43 11.34840 123.26707 35654 ft 476 kts 325°
2026-05-06 13:43 11.36658 123.25433 35862 ft 481 kts 325°
2026-05-06 13:43 11.39470 123.23465 35878 ft 481 kts 324°
2026-05-06 13:44 11.44983 123.19604 35876 ft 475 kts 324°
2026-05-06 13:44 11.50473 123.15756 35873 ft 476 kts 324°
2026-05-06 13:45 11.55922 123.11936 35875 ft 476 kts 324°
2026-05-06 13:45 11.65020 123.05553 35872 ft 475 kts 324°
2026-05-06 13:46 11.69557 123.02369 35880 ft 475 kts 324°
2026-05-06 13:46 11.75925 122.97896 35886 ft 476 kts 324°
2026-05-06 13:47 11.81396 122.94052 35890 ft 475 kts 324°
2026-05-06 13:47 11.85949 122.90851 35890 ft 475 kts 324°
2026-05-06 13:48 11.91391 122.87023 35890 ft 475 kts 324°
2026-05-06 13:48 11.96819 122.83204 35890 ft 475 kts 324°
2026-05-06 13:49 12.02292 122.79351 35890 ft 474 kts 324°
2026-05-06 13:49 12.07725 122.75523 35893 ft 473 kts 324°
2026-05-06 13:50 12.13134 122.71712 35891 ft 473 kts 324°
2026-05-06 13:50 12.18561 122.67885 35891 ft 473 kts 324°
2026-05-06 13:51 12.24911 122.63406 35889 ft 473 kts 324°
2026-05-06 13:51 12.30325 122.59584 35888 ft 473 kts 324°
2026-05-06 13:52 12.34851 122.56387 35888 ft 473 kts 324°
2026-05-06 13:52 12.40273 122.52557 35888 ft 473 kts 324°
2026-05-06 13:53 12.46588 122.48092 35889 ft 472 kts 324°
2026-05-06 13:53 12.51106 122.44896 35889 ft 471 kts 323°
2026-05-06 13:54 12.56500 122.41079 35888 ft 471 kts 323°
2026-05-06 13:54 12.61886 122.37265 35888 ft 471 kts 323°
2026-05-06 13:55 12.67274 122.33448 35891 ft 471 kts 323°
2026-05-06 13:55 12.72695 122.29606 35891 ft 470 kts 323°
2026-05-06 13:56 12.78993 122.25140 35890 ft 470 kts 323°
2026-05-06 13:56 12.83480 122.21956 35890 ft 469 kts 323°
2026-05-06 13:57 12.88831 122.18156 35891 ft 468 kts 323°
2026-05-06 13:57 12.94179 122.14359 35891 ft 468 kts 323°
2026-05-06 13:58 12.99531 122.10554 35891 ft 468 kts 323°
2026-05-06 13:58 13.04899 122.06737 35905 ft 468 kts 323°
2026-05-06 13:59 13.10262 122.02922 35936 ft 468 kts 323°
2026-05-06 13:59 13.15648 121.99088 35966 ft 468 kts 323°
2026-05-06 14:00 13.21004 121.95273 35973 ft 468 kts 323°
2026-05-06 14:00 13.26360 121.91457 35976 ft 467 kts 323°
2026-05-06 14:01 13.31684 121.87661 35958 ft 466 kts 323°
2026-05-06 14:01 13.37019 121.83855 35938 ft 466 kts 323°
2026-05-06 14:02 13.43271 121.79393 35928 ft 466 kts 323°
2026-05-06 14:02 13.47719 121.76215 35922 ft 466 kts 323°
2026-05-06 14:03 13.53041 121.72412 35918 ft 466 kts 323°
2026-05-06 14:03 13.58391 121.68587 35922 ft 466 kts 323°
2026-05-06 14:04 13.63717 121.64778 35926 ft 466 kts 323°
2026-05-06 14:04 13.69065 121.60950 35922 ft 465 kts 323°
2026-05-06 14:05 13.74377 121.57146 35921 ft 466 kts 323°
2026-05-06 14:05 13.79701 121.53332 35929 ft 466 kts 323°
2026-05-06 14:06 13.85890 121.48894 35942 ft 465 kts 323°
2026-05-06 14:06 13.91215 121.45074 35619 ft 459 kts 323°
2026-05-06 14:07 13.92958 121.43823 35037 ft 461 kts 323°
2026-05-06 14:07 13.96486 121.41290 33915 ft 463 kts 323°
2026-05-06 14:07 13.99133 121.39388 33133 ft 463 kts 323°
2026-05-06 14:07 14.01796 121.37476 32342 ft 463 kts 323°
2026-05-06 14:08 14.04443 121.35574 31538 ft 464 kts 324°
2026-05-06 14:08 14.06207 121.34306 30985 ft 466 kts 324°
2026-05-06 14:08 14.08871 121.32391 30356 ft 462 kts 324°
2026-05-06 14:08 14.12335 121.29900 29708 ft 455 kts 324°
2026-05-06 14:09 14.14083 121.28642 29351 ft 454 kts 324°
2026-05-06 14:09 14.16689 121.26766 28798 ft 466 kts 324°
2026-05-06 14:09 14.19369 121.24837 28220 ft 467 kts 324°
2026-05-06 14:09 14.22908 121.22290 27453 ft 463 kts 324°
2026-05-06 14:10 14.24664 121.21025 27071 ft 460 kts 324°
2026-05-06 14:10 14.27274 121.19144 26493 ft 456 kts 324°
2026-05-06 14:10 14.29857 121.17283 25926 ft 452 kts 325°
2026-05-06 14:10 14.32417 121.15437 25358 ft 449 kts 325°
2026-05-06 14:11 14.34990 121.13582 24779 ft 445 kts 325°
2026-05-06 14:11 14.37491 121.11778 24220 ft 441 kts 325°
2026-05-06 14:11 14.40838 121.09363 23449 ft 437 kts 326°
2026-05-06 14:11 14.43312 121.07577 22883 ft 434 kts 326°
2026-05-06 14:12 14.44994 121.06362 22492 ft 432 kts 326°
2026-05-06 14:12 14.48264 121.04002 21731 ft 428 kts 326°
2026-05-06 14:12 14.50685 121.02252 21161 ft 425 kts 326°
2026-05-06 14:12 14.52306 121.01109 20776 ft 423 kts 327°
2026-05-06 14:13 14.54771 120.99445 20203 ft 421 kts 328°
2026-05-06 14:13 14.57213 120.97802 19946 ft 410 kts 328°
2026-05-06 14:13 14.59572 120.96213 19942 ft 409 kts 328°
2026-05-06 14:13 14.62727 120.94083 19925 ft 389 kts 327°
2026-05-06 14:14 14.64941 120.92587 19913 ft 373 kts 327°
2026-05-06 14:14 14.67065 120.91149 19883 ft 359 kts 327°
2026-05-06 14:14 14.68449 120.90213 19595 ft 358 kts 328°
2026-05-06 14:14 14.70579 120.88772 18798 ft 369 kts 328°
2026-05-06 14:15 14.72726 120.87318 18002 ft 378 kts 328°
2026-05-06 14:15 14.74933 120.85822 17486 ft 377 kts 328°
2026-05-06 14:15 14.77862 120.83833 16699 ft 380 kts 328°
2026-05-06 14:15 14.79341 120.82830 16062 ft 387 kts 328°
2026-05-06 14:16 14.81630 120.81278 14994 ft 401 kts 328°
2026-05-06 14:16 14.83960 120.79695 14058 ft 408 kts 328°
2026-05-06 14:16 14.86333 120.78083 13463 ft 404 kts 328°
2026-05-06 14:16 14.89433 120.75977 12684 ft 399 kts 328°
2026-05-06 14:17 14.90983 120.74923 12276 ft 397 kts 328°
2026-05-06 14:17 14.94154 120.73009 11477 ft 390 kts 338°
2026-05-06 14:17 14.95831 120.72382 11248 ft 381 kts 346°
2026-05-06 14:17 14.98386 120.71853 11007 ft 366 kts 353°
2026-05-06 14:18 15.01677 120.71365 10827 ft 346 kts 354°
2026-05-06 14:18 15.03252 120.71138 10768 ft 336 kts 354°
2026-05-06 14:18 15.06262 120.70713 10677 ft 316 kts 354°
2026-05-06 14:18 15.07708 120.70513 10658 ft 306 kts 355°
2026-05-06 14:19 15.09761 120.70233 10617 ft 292 kts 355°
2026-05-06 14:19 15.12400 120.69877 10348 ft 279 kts 355°
2026-05-06 14:19 15.13681 120.69705 10134 ft 278 kts 355°
2026-05-06 14:19 15.15591 120.69500 9733 ft 276 kts 358°
2026-05-06 14:20 15.18142 120.69311 9074 ft 273 kts 358°
2026-05-06 14:20 15.20046 120.69160 8548 ft 273 kts 358°
2026-05-06 14:20 15.21916 120.69006 8039 ft 271 kts 358°
2026-05-06 14:20 15.23172 120.68933 7700 ft 269 kts
2026-05-06 14:21 15.24987 120.69331 7171 ft 265 kts 21°
2026-05-06 14:21 15.26722 120.69990 6680 ft 263 kts 22°
2026-05-06 14:21 15.28425 120.70670 6191 ft 262 kts 22°
2026-05-06 14:21 15.30133 120.71352 5664 ft 263 kts 22°
2026-05-06 14:22 15.31850 120.72012 5219 ft 260 kts 15°
2026-05-06 14:22 15.34199 120.71883 4775 ft 261 kts 339°
2026-05-06 14:22 15.35237 120.71228 4547 ft 263 kts 319°
2026-05-06 14:22 15.36590 120.69153 4120 ft 265 kts 296°
2026-05-06 14:23 15.37078 120.67981 3904 ft 265 kts 292°
2026-05-06 14:23 15.37243 120.65466 3481 ft 264 kts 254°
2026-05-06 14:23 15.36382 120.63895 3462 ft 249 kts 226°
2026-05-06 14:23 15.35478 120.63153 3277 ft 248 kts 211°
2026-05-06 14:24 15.33935 120.62369 3033 ft 240 kts 203°
2026-05-06 14:24 15.31906 120.61523 2751 ft 232 kts 201°
2026-05-06 14:24 15.30454 120.60946 2563 ft 212 kts 201°
2026-05-06 14:24 15.29540 120.60583 2414 ft 203 kts 201°
2026-05-06 14:25 15.28261 120.60076 2132 ft 191 kts 201°
2026-05-06 14:25 15.26666 120.59443 1787 ft 178 kts 201°
2026-05-06 14:25 15.25547 120.59000 1535 ft 162 kts 201°
2026-05-06 14:25 15.24862 120.58728 1404 ft 157 kts 201°
2026-05-06 14:26 15.23854 120.58328 1208 ft 153 kts 201°
2026-05-06 14:26 15.22868 120.57938 993 ft 150 kts 200°
2026-05-06 14:26 15.21577 120.57425 733 ft 148 kts 201°
2026-05-06 14:26 15.20623 120.57046 540 ft 146 kts 201°
2026-05-06 14:27 15.19674 120.56671 423 ft 138 kts 201°
2026-05-06 14:27 15.18906 120.56370 446 ft 97 kts 201°
2026-05-06 14:27 15.18532 120.56220 453 ft 77 kts 201°
2026-05-06 14:27 15.18239 120.56104 460 ft 11 kts 202°
2026-05-06 14:28 15.18182 120.56079 461 ft 11 kts 202°
2026-05-06 14:28 15.18146 120.56052 462 ft 0 kts 246°
2026-05-06 14:28 15.18142 120.56023 462 ft 8 kts 272°
2026-05-06 14:28 15.18168 120.55940 464 ft 14 kts 291°
2026-05-06 14:29 15.18200 120.55856 468 ft 10 kts 292°
2026-05-06 14:29 15.18222 120.55798 473 ft 3 kts 291°
2026-05-06 14:29 15.18234 120.55768 476 ft 5 kts 291°
2026-05-06 14:29 15.18254 120.55718 479 ft 9 kts 302°
2026-05-06 14:30 15.18312 120.55706 480 ft 11 kts 15°
2026-05-06 14:30 15.18375 120.55730 478 ft 17 kts 21°
2026-05-06 14:30 15.18511 120.55785 475 ft 24 kts 20°
2026-05-06 14:30 15.18676 120.55849 470 ft 27 kts 21°
2026-05-06 14:31 15.18930 120.55949 463 ft 21 kts 21°
2026-05-06 14:31 15.19024 120.55987 459 ft 19 kts 21°
2026-05-06 14:31 15.19093 120.56022 456 ft 11 kts 55°
2026-05-06 14:31 15.19093 120.56110 453 ft 10 kts 83°
2026-05-06 14:32 15.19158 120.56166 450 ft 13 kts 20°
2026-05-06 14:32 15.19255 120.56204 446 ft 16 kts 21°
2026-05-06 14:32 15.19365 120.56249 443 ft 5 kts 20°
2026-05-06 14:32 15.19409 120.56250 443 ft 9 kts 327°
2026-05-06 14:33 15.19432 120.56210 444 ft 5 kts 297°
2026-05-06 14:33 15.19453 120.56194 445 ft 4 kts 345°
2026-05-06 14:33 15.19490 120.56199 444 ft 4 kts 19°
2026-05-06 14:33 15.19511 120.56208 443 ft 3 kts 21°
2026-05-06 14:34 15.19520 120.56212 443 ft 0 kts 22°